sat.trackr.live / text

‹ back to catalog

STARLINK-5362

NORAD 55493 · 2023-015AW

PAYLOAD ACTIVE UNKNOWN

§ Identity

Operator
Country
US
Launch date
2023-02-02
Launch site
AFETR
Launch vehicle
Mass (kg)
RCS (m²)

Purposes: comms

External: N2YO · Heavens-Above · Gunter

§ Orbital elements

Epoch: 2026-09-20T10:49:12.280512Z

Period
94.27 min
Inclination
43.0019°
Eccentricity
0.0001133
Mean motion
15.27574852 rev/d
Perigee alt
482.3 km
Apogee alt
483.8 km
Semi-major
6,861.2 km
B*
2.0564e-6
RAAN
319.6354°
Arg perigee
270.3497°
Mean anomaly
89.7225°
Rev number
20,038

§ Raw data

STARLINK-53621 55493U 23015AW  26263.45083658 -.00000205  00000+0  20564-5 0  99942 55493  43.0019 319.6354 0001133 270.3497  89.7225 15.27574852200388

JSON: /api/v1/satellites/55493 · /tle

For live sub-satellite position, see the globe view (requires WebGL).

§ Visibility from observer

Set your observer location to see the next 7 days of passes ≥ 10°. The values pass through the URL so the page stays shareable.

No JS? Fill the form by hand. The geolocation button needs JavaScript.